Location: Ergnies
(50.0854°N, 2.0375°E)
Time: 09:51:29
(UTC+00:00)

CZ-4C R/B - Pass Details

Date: 14 January 2026
Orbit: 482 x 1496 km, 63.4° (Epoch: 18 February)

Event Time Altitude Azimuth Distance (km) Brightness Sun altitude
Exits shadow 04:04:14 22° 14° (NNE) 1,871 4.1 -34.7°
Drops below altitude 10° 04:07:47 10° 43° (NE) 2,795 5.4 -34.2°
Sets 04:11:18 0° 56° (ENE) 3,950 6.5 -33.6°
